<?xml version="1.0"?>
<gpx xmlns="http://www.topografix.com/GPX/1/1" xmlns:xsi="http://www.w3.org/2001/XMLSchema-instance" version="1.1" creator="GPX RubyGem 1.0.0 -- http://dougfales.github.io/gpx/" xsi:schemaLocation="http://www.topografix.com/GPX/1/1 http://www.topografix.com/GPX/1/1/gpx.xsd">
  <metadata>
    <name/>
    <time>2026-05-02T14:35:44+00:00</time>
    <bound minlat="90.0" minlon="180.0" maxlat="-90.0" maxlon="-180.0"/>
  </metadata>
  <trk>
    <name/>
    <trkseg>
      <trkpt lat="46.834071" lon="12.883412">
        <time>1970-01-01T00:00:00+00:00</time>
        <ele>1461.0</ele>
      </trkpt>
      <trkpt lat="46.834055" lon="12.883383">
        <time>1970-01-01T00:00:00+00:00</time>
        <ele>1461.0</ele>
      </trkpt>
      <trkpt lat="46.83414" lon="12.883676">
        <time>1970-01-01T00:00:00+00:00</time>
        <ele>1463.0</ele>
      </trkpt>
      <trkpt lat="46.834129" lon="12.883753">
        <time>1970-01-01T00:00:00+00:00</time>
        <ele>1465.0</ele>
      </trkpt>
      <trkpt lat="46.834057" lon="12.883789">
        <time>1970-01-01T00:00:00+00:00</time>
        <ele>1468.0</ele>
      </trkpt>
      <trkpt lat="46.833853" lon="12.883731">
        <time>1970-01-01T00:00:00+00:00</time>
        <ele>1478.0</ele>
      </trkpt>
      <trkpt lat="46.833505" lon="12.883397">
        <time>1970-01-01T00:00:00+00:00</time>
        <ele>1492.0</ele>
      </trkpt>
      <trkpt lat="46.833171" lon="12.883199">
        <time>1970-01-01T00:00:00+00:00</time>
        <ele>1498.0</ele>
      </trkpt>
      <trkpt lat="46.832931" lon="12.883191">
        <time>1970-01-01T00:00:00+00:00</time>
        <ele>1503.0</ele>
      </trkpt>
      <trkpt lat="46.832693" lon="12.883354">
        <time>1970-01-01T00:00:00+00:00</time>
        <ele>1519.0</ele>
      </trkpt>
      <trkpt lat="46.832534" lon="12.883273">
        <time>1970-01-01T00:00:00+00:00</time>
        <ele>1523.0</ele>
      </trkpt>
      <trkpt lat="46.83235" lon="12.883259">
        <time>1970-01-01T00:00:00+00:00</time>
        <ele>1529.0</ele>
      </trkpt>
      <trkpt lat="46.83231" lon="12.883315">
        <time>1970-01-01T00:00:00+00:00</time>
        <ele>1532.0</ele>
      </trkpt>
      <trkpt lat="46.832411" lon="12.883916">
        <time>1970-01-01T00:00:00+00:00</time>
        <ele>1546.0</ele>
      </trkpt>
      <trkpt lat="46.832552" lon="12.884132">
        <time>1970-01-01T00:00:00+00:00</time>
        <ele>1549.0</ele>
      </trkpt>
      <trkpt lat="46.832594" lon="12.884288">
        <time>1970-01-01T00:00:00+00:00</time>
        <ele>1554.0</ele>
      </trkpt>
      <trkpt lat="46.832568" lon="12.884312">
        <time>1970-01-01T00:00:00+00:00</time>
        <ele>1555.0</ele>
      </trkpt>
      <trkpt lat="46.832422" lon="12.884296">
        <time>1970-01-01T00:00:00+00:00</time>
        <ele>1559.0</ele>
      </trkpt>
      <trkpt lat="46.832337" lon="12.884488">
        <time>1970-01-01T00:00:00+00:00</time>
        <ele>1568.0</ele>
      </trkpt>
      <trkpt lat="46.832218" lon="12.884554">
        <time>1970-01-01T00:00:00+00:00</time>
        <ele>1575.0</ele>
      </trkpt>
      <trkpt lat="46.831959" lon="12.884486">
        <time>1970-01-01T00:00:00+00:00</time>
        <ele>1584.0</ele>
      </trkpt>
      <trkpt lat="46.831764" lon="12.884356">
        <time>1970-01-01T00:00:00+00:00</time>
        <ele>1588.0</ele>
      </trkpt>
      <trkpt lat="46.831463" lon="12.88437">
        <time>1970-01-01T00:00:00+00:00</time>
        <ele>1599.0</ele>
      </trkpt>
      <trkpt lat="46.831149" lon="12.884507">
        <time>1970-01-01T00:00:00+00:00</time>
        <ele>1604.0</ele>
      </trkpt>
      <trkpt lat="46.831125" lon="12.884536">
        <time>1970-01-01T00:00:00+00:00</time>
        <ele>1605.0</ele>
      </trkpt>
      <trkpt lat="46.831129" lon="12.88462">
        <time>1970-01-01T00:00:00+00:00</time>
        <ele>1608.0</ele>
      </trkpt>
      <trkpt lat="46.831237" lon="12.884831">
        <time>1970-01-01T00:00:00+00:00</time>
        <ele>1616.0</ele>
      </trkpt>
      <trkpt lat="46.831275" lon="12.885074">
        <time>1970-01-01T00:00:00+00:00</time>
        <ele>1621.0</ele>
      </trkpt>
      <trkpt lat="46.83125" lon="12.885129">
        <time>1970-01-01T00:00:00+00:00</time>
        <ele>1623.0</ele>
      </trkpt>
      <trkpt lat="46.831075" lon="12.885155">
        <time>1970-01-01T00:00:00+00:00</time>
        <ele>1623.0</ele>
      </trkpt>
      <trkpt lat="46.83101" lon="12.8852">
        <time>1970-01-01T00:00:00+00:00</time>
        <ele>1623.0</ele>
      </trkpt>
      <trkpt lat="46.831017" lon="12.885295">
        <time>1970-01-01T00:00:00+00:00</time>
        <ele>1627.0</ele>
      </trkpt>
      <trkpt lat="46.831293" lon="12.885878">
        <time>1970-01-01T00:00:00+00:00</time>
        <ele>1643.0</ele>
      </trkpt>
      <trkpt lat="46.831316" lon="12.886015">
        <time>1970-01-01T00:00:00+00:00</time>
        <ele>1647.0</ele>
      </trkpt>
      <trkpt lat="46.831266" lon="12.886081">
        <time>1970-01-01T00:00:00+00:00</time>
        <ele>1650.0</ele>
      </trkpt>
      <trkpt lat="46.831073" lon="12.886091">
        <time>1970-01-01T00:00:00+00:00</time>
        <ele>1655.0</ele>
      </trkpt>
      <trkpt lat="46.830963" lon="12.886139">
        <time>1970-01-01T00:00:00+00:00</time>
        <ele>1658.0</ele>
      </trkpt>
      <trkpt lat="46.831098" lon="12.886384">
        <time>1970-01-01T00:00:00+00:00</time>
        <ele>1664.0</ele>
      </trkpt>
      <trkpt lat="46.831102" lon="12.886439">
        <time>1970-01-01T00:00:00+00:00</time>
        <ele>1666.0</ele>
      </trkpt>
      <trkpt lat="46.831167" lon="12.886666">
        <time>1970-01-01T00:00:00+00:00</time>
        <ele>1670.0</ele>
      </trkpt>
      <trkpt lat="46.831336" lon="12.886848">
        <time>1970-01-01T00:00:00+00:00</time>
        <ele>1673.0</ele>
      </trkpt>
      <trkpt lat="46.831479" lon="12.886954">
        <time>1970-01-01T00:00:00+00:00</time>
        <ele>1673.0</ele>
      </trkpt>
      <trkpt lat="46.831589" lon="12.887165">
        <time>1970-01-01T00:00:00+00:00</time>
        <ele>1679.0</ele>
      </trkpt>
      <trkpt lat="46.831511" lon="12.887194">
        <time>1970-01-01T00:00:00+00:00</time>
        <ele>1683.0</ele>
      </trkpt>
      <trkpt lat="46.830999" lon="12.887204">
        <time>1970-01-01T00:00:00+00:00</time>
        <ele>1701.0</ele>
      </trkpt>
      <trkpt lat="46.830932" lon="12.887283">
        <time>1970-01-01T00:00:00+00:00</time>
        <ele>1707.0</ele>
      </trkpt>
      <trkpt lat="46.831232" lon="12.888016">
        <time>1970-01-01T00:00:00+00:00</time>
        <ele>1735.0</ele>
      </trkpt>
      <trkpt lat="46.83143" lon="12.888306">
        <time>1970-01-01T00:00:00+00:00</time>
        <ele>1734.0</ele>
      </trkpt>
      <trkpt lat="46.831405" lon="12.888338">
        <time>1970-01-01T00:00:00+00:00</time>
        <ele>1735.0</ele>
      </trkpt>
      <trkpt lat="46.830896" lon="12.888443">
        <time>1970-01-01T00:00:00+00:00</time>
        <ele>1761.0</ele>
      </trkpt>
      <trkpt lat="46.830873" lon="12.888478">
        <time>1970-01-01T00:00:00+00:00</time>
        <ele>1763.0</ele>
      </trkpt>
      <trkpt lat="46.831019" lon="12.888747">
        <time>1970-01-01T00:00:00+00:00</time>
        <ele>1768.0</ele>
      </trkpt>
      <trkpt lat="46.831098" lon="12.888805">
        <time>1970-01-01T00:00:00+00:00</time>
        <ele>1765.0</ele>
      </trkpt>
      <trkpt lat="46.831232" lon="12.889203">
        <time>1970-01-01T00:00:00+00:00</time>
        <ele>1771.0</ele>
      </trkpt>
      <trkpt lat="46.831212" lon="12.889227">
        <time>1970-01-01T00:00:00+00:00</time>
        <ele>1773.0</ele>
      </trkpt>
      <trkpt lat="46.831046" lon="12.889158">
        <time>1970-01-01T00:00:00+00:00</time>
        <ele>1783.0</ele>
      </trkpt>
      <trkpt lat="46.830736" lon="12.889132">
        <time>1970-01-01T00:00:00+00:00</time>
        <ele>1798.0</ele>
      </trkpt>
      <trkpt lat="46.830158" lon="12.888889">
        <time>1970-01-01T00:00:00+00:00</time>
        <ele>1810.0</ele>
      </trkpt>
      <trkpt lat="46.829843" lon="12.888966">
        <time>1970-01-01T00:00:00+00:00</time>
        <ele>1817.0</ele>
      </trkpt>
      <trkpt lat="46.829603" lon="12.889227">
        <time>1970-01-01T00:00:00+00:00</time>
        <ele>1830.0</ele>
      </trkpt>
      <trkpt lat="46.829042" lon="12.889678">
        <time>1970-01-01T00:00:00+00:00</time>
        <ele>1842.0</ele>
      </trkpt>
      <trkpt lat="46.828565" lon="12.889891">
        <time>1970-01-01T00:00:00+00:00</time>
        <ele>1857.0</ele>
      </trkpt>
      <trkpt lat="46.828158" lon="12.889981">
        <time>1970-01-01T00:00:00+00:00</time>
        <ele>1868.0</ele>
      </trkpt>
      <trkpt lat="46.82814" lon="12.890034">
        <time>1970-01-01T00:00:00+00:00</time>
        <ele>1870.0</ele>
      </trkpt>
      <trkpt lat="46.82821" lon="12.8902">
        <time>1970-01-01T00:00:00+00:00</time>
        <ele>1877.0</ele>
      </trkpt>
      <trkpt lat="46.828199" lon="12.890263">
        <time>1970-01-01T00:00:00+00:00</time>
        <ele>1879.0</ele>
      </trkpt>
      <trkpt lat="46.828001" lon="12.890358">
        <time>1970-01-01T00:00:00+00:00</time>
        <ele>1883.0</ele>
      </trkpt>
      <trkpt lat="46.827732" lon="12.890656">
        <time>1970-01-01T00:00:00+00:00</time>
        <ele>1889.0</ele>
      </trkpt>
      <trkpt lat="46.827613" lon="12.890724">
        <time>1970-01-01T00:00:00+00:00</time>
        <ele>1888.0</ele>
      </trkpt>
      <trkpt lat="46.827532" lon="12.890933">
        <time>1970-01-01T00:00:00+00:00</time>
        <ele>1892.0</ele>
      </trkpt>
      <trkpt lat="46.827387" lon="12.891028">
        <time>1970-01-01T00:00:00+00:00</time>
        <ele>1888.0</ele>
      </trkpt>
      <trkpt lat="46.82721" lon="12.89108">
        <time>1970-01-01T00:00:00+00:00</time>
        <ele>1884.0</ele>
      </trkpt>
      <trkpt lat="46.827025" lon="12.891186">
        <time>1970-01-01T00:00:00+00:00</time>
        <ele>1891.0</ele>
      </trkpt>
      <trkpt lat="46.826958" lon="12.891181">
        <time>1970-01-01T00:00:00+00:00</time>
        <ele>1892.0</ele>
      </trkpt>
      <trkpt lat="46.826813" lon="12.891091">
        <time>1970-01-01T00:00:00+00:00</time>
        <ele>1891.0</ele>
      </trkpt>
      <trkpt lat="46.826707" lon="12.891094">
        <time>1970-01-01T00:00:00+00:00</time>
        <ele>1894.0</ele>
      </trkpt>
      <trkpt lat="46.826242" lon="12.89131">
        <time>1970-01-01T00:00:00+00:00</time>
        <ele>1911.0</ele>
      </trkpt>
      <trkpt lat="46.825928" lon="12.891286">
        <time>1970-01-01T00:00:00+00:00</time>
        <ele>1915.0</ele>
      </trkpt>
      <trkpt lat="46.825812" lon="12.891309">
        <time>1970-01-01T00:00:00+00:00</time>
        <ele>1918.0</ele>
      </trkpt>
      <trkpt lat="46.825627" lon="12.891368">
        <time>1970-01-01T00:00:00+00:00</time>
        <ele>1921.0</ele>
      </trkpt>
      <trkpt lat="46.82532" lon="12.891562">
        <time>1970-01-01T00:00:00+00:00</time>
        <ele>1927.0</ele>
      </trkpt>
      <trkpt lat="46.825187" lon="12.89158">
        <time>1970-01-01T00:00:00+00:00</time>
        <ele>1927.0</ele>
      </trkpt>
      <trkpt lat="46.824857" lon="12.891711">
        <time>1970-01-01T00:00:00+00:00</time>
        <ele>1926.0</ele>
      </trkpt>
      <trkpt lat="46.824789" lon="12.891707">
        <time>1970-01-01T00:00:00+00:00</time>
        <ele>1925.0</ele>
      </trkpt>
      <trkpt lat="46.824692" lon="12.891748">
        <time>1970-01-01T00:00:00+00:00</time>
        <ele>1925.0</ele>
      </trkpt>
      <trkpt lat="46.824601" lon="12.891859">
        <time>1970-01-01T00:00:00+00:00</time>
        <ele>1926.0</ele>
      </trkpt>
      <trkpt lat="46.824577" lon="12.891991">
        <time>1970-01-01T00:00:00+00:00</time>
        <ele>1929.0</ele>
      </trkpt>
      <trkpt lat="46.824351" lon="12.892454">
        <time>1970-01-01T00:00:00+00:00</time>
        <ele>1941.0</ele>
      </trkpt>
      <trkpt lat="46.824218" lon="12.892666">
        <time>1970-01-01T00:00:00+00:00</time>
        <ele>1946.0</ele>
      </trkpt>
      <trkpt lat="46.824052" lon="12.892844">
        <time>1970-01-01T00:00:00+00:00</time>
        <ele>1947.0</ele>
      </trkpt>
      <trkpt lat="46.823983" lon="12.892846">
        <time>1970-01-01T00:00:00+00:00</time>
        <ele>1947.0</ele>
      </trkpt>
      <trkpt lat="46.823792" lon="12.892909">
        <time>1970-01-01T00:00:00+00:00</time>
        <ele>1948.0</ele>
      </trkpt>
      <trkpt lat="46.823702" lon="12.893104">
        <time>1970-01-01T00:00:00+00:00</time>
        <ele>1952.0</ele>
      </trkpt>
      <trkpt lat="46.823672" lon="12.893257">
        <time>1970-01-01T00:00:00+00:00</time>
        <ele>1956.0</ele>
      </trkpt>
      <trkpt lat="46.823659" lon="12.893472">
        <time>1970-01-01T00:00:00+00:00</time>
        <ele>1960.0</ele>
      </trkpt>
      <trkpt lat="46.823604" lon="12.893548">
        <time>1970-01-01T00:00:00+00:00</time>
        <ele>1961.0</ele>
      </trkpt>
      <trkpt lat="46.823591" lon="12.893677">
        <time>1970-01-01T00:00:00+00:00</time>
        <ele>1962.0</ele>
      </trkpt>
      <trkpt lat="46.823607" lon="12.893768">
        <time>1970-01-01T00:00:00+00:00</time>
        <ele>1963.0</ele>
      </trkpt>
      <trkpt lat="46.823771" lon="12.893945">
        <time>1970-01-01T00:00:00+00:00</time>
        <ele>1967.0</ele>
      </trkpt>
      <trkpt lat="46.823859" lon="12.893964">
        <time>1970-01-01T00:00:00+00:00</time>
        <ele>1969.0</ele>
      </trkpt>
      <trkpt lat="46.824019" lon="12.893936">
        <time>1970-01-01T00:00:00+00:00</time>
        <ele>1971.0</ele>
      </trkpt>
      <trkpt lat="46.824306" lon="12.89375">
        <time>1970-01-01T00:00:00+00:00</time>
        <ele>1974.0</ele>
      </trkpt>
      <trkpt lat="46.824464" lon="12.893725">
        <time>1970-01-01T00:00:00+00:00</time>
        <ele>1977.0</ele>
      </trkpt>
      <trkpt lat="46.824684" lon="12.893632">
        <time>1970-01-01T00:00:00+00:00</time>
        <ele>1980.0</ele>
      </trkpt>
      <trkpt lat="46.824796" lon="12.893574">
        <time>1970-01-01T00:00:00+00:00</time>
        <ele>1982.0</ele>
      </trkpt>
      <trkpt lat="46.824796" lon="12.893574">
        <time>1970-01-01T00:00:00+00:00</time>
        <ele>1982.0</ele>
      </trkpt>
      <trkpt lat="46.824684" lon="12.893632">
        <time>1970-01-01T00:00:00+00:00</time>
        <ele>1980.0</ele>
      </trkpt>
      <trkpt lat="46.824464" lon="12.893725">
        <time>1970-01-01T00:00:00+00:00</time>
        <ele>1977.0</ele>
      </trkpt>
      <trkpt lat="46.824306" lon="12.89375">
        <time>1970-01-01T00:00:00+00:00</time>
        <ele>1974.0</ele>
      </trkpt>
      <trkpt lat="46.824019" lon="12.893936">
        <time>1970-01-01T00:00:00+00:00</time>
        <ele>1971.0</ele>
      </trkpt>
      <trkpt lat="46.823859" lon="12.893964">
        <time>1970-01-01T00:00:00+00:00</time>
        <ele>1969.0</ele>
      </trkpt>
      <trkpt lat="46.823771" lon="12.893945">
        <time>1970-01-01T00:00:00+00:00</time>
        <ele>1967.0</ele>
      </trkpt>
      <trkpt lat="46.823607" lon="12.893768">
        <time>1970-01-01T00:00:00+00:00</time>
        <ele>1963.0</ele>
      </trkpt>
      <trkpt lat="46.823591" lon="12.893677">
        <time>1970-01-01T00:00:00+00:00</time>
        <ele>1962.0</ele>
      </trkpt>
      <trkpt lat="46.823604" lon="12.893548">
        <time>1970-01-01T00:00:00+00:00</time>
        <ele>1961.0</ele>
      </trkpt>
      <trkpt lat="46.823659" lon="12.893472">
        <time>1970-01-01T00:00:00+00:00</time>
        <ele>1960.0</ele>
      </trkpt>
      <trkpt lat="46.823672" lon="12.893257">
        <time>1970-01-01T00:00:00+00:00</time>
        <ele>1956.0</ele>
      </trkpt>
      <trkpt lat="46.823702" lon="12.893104">
        <time>1970-01-01T00:00:00+00:00</time>
        <ele>1952.0</ele>
      </trkpt>
      <trkpt lat="46.823792" lon="12.892909">
        <time>1970-01-01T00:00:00+00:00</time>
        <ele>1948.0</ele>
      </trkpt>
      <trkpt lat="46.823983" lon="12.892846">
        <time>1970-01-01T00:00:00+00:00</time>
        <ele>1947.0</ele>
      </trkpt>
      <trkpt lat="46.824052" lon="12.892844">
        <time>1970-01-01T00:00:00+00:00</time>
        <ele>1947.0</ele>
      </trkpt>
      <trkpt lat="46.824218" lon="12.892666">
        <time>1970-01-01T00:00:00+00:00</time>
        <ele>1946.0</ele>
      </trkpt>
      <trkpt lat="46.824351" lon="12.892454">
        <time>1970-01-01T00:00:00+00:00</time>
        <ele>1941.0</ele>
      </trkpt>
      <trkpt lat="46.824577" lon="12.891991">
        <time>1970-01-01T00:00:00+00:00</time>
        <ele>1929.0</ele>
      </trkpt>
      <trkpt lat="46.824601" lon="12.891859">
        <time>1970-01-01T00:00:00+00:00</time>
        <ele>1926.0</ele>
      </trkpt>
      <trkpt lat="46.824692" lon="12.891748">
        <time>1970-01-01T00:00:00+00:00</time>
        <ele>1925.0</ele>
      </trkpt>
      <trkpt lat="46.824789" lon="12.891707">
        <time>1970-01-01T00:00:00+00:00</time>
        <ele>1925.0</ele>
      </trkpt>
      <trkpt lat="46.824857" lon="12.891711">
        <time>1970-01-01T00:00:00+00:00</time>
        <ele>1926.0</ele>
      </trkpt>
      <trkpt lat="46.825187" lon="12.89158">
        <time>1970-01-01T00:00:00+00:00</time>
        <ele>1927.0</ele>
      </trkpt>
      <trkpt lat="46.82532" lon="12.891562">
        <time>1970-01-01T00:00:00+00:00</time>
        <ele>1927.0</ele>
      </trkpt>
      <trkpt lat="46.825627" lon="12.891368">
        <time>1970-01-01T00:00:00+00:00</time>
        <ele>1921.0</ele>
      </trkpt>
      <trkpt lat="46.825812" lon="12.891309">
        <time>1970-01-01T00:00:00+00:00</time>
        <ele>1918.0</ele>
      </trkpt>
      <trkpt lat="46.825928" lon="12.891286">
        <time>1970-01-01T00:00:00+00:00</time>
        <ele>1915.0</ele>
      </trkpt>
      <trkpt lat="46.826242" lon="12.89131">
        <time>1970-01-01T00:00:00+00:00</time>
        <ele>1911.0</ele>
      </trkpt>
      <trkpt lat="46.826707" lon="12.891094">
        <time>1970-01-01T00:00:00+00:00</time>
        <ele>1894.0</ele>
      </trkpt>
      <trkpt lat="46.826813" lon="12.891091">
        <time>1970-01-01T00:00:00+00:00</time>
        <ele>1891.0</ele>
      </trkpt>
      <trkpt lat="46.826958" lon="12.891181">
        <time>1970-01-01T00:00:00+00:00</time>
        <ele>1892.0</ele>
      </trkpt>
      <trkpt lat="46.827025" lon="12.891186">
        <time>1970-01-01T00:00:00+00:00</time>
        <ele>1891.0</ele>
      </trkpt>
      <trkpt lat="46.82721" lon="12.89108">
        <time>1970-01-01T00:00:00+00:00</time>
        <ele>1884.0</ele>
      </trkpt>
      <trkpt lat="46.827387" lon="12.891028">
        <time>1970-01-01T00:00:00+00:00</time>
        <ele>1888.0</ele>
      </trkpt>
      <trkpt lat="46.827532" lon="12.890933">
        <time>1970-01-01T00:00:00+00:00</time>
        <ele>1892.0</ele>
      </trkpt>
      <trkpt lat="46.827613" lon="12.890724">
        <time>1970-01-01T00:00:00+00:00</time>
        <ele>1888.0</ele>
      </trkpt>
      <trkpt lat="46.827732" lon="12.890656">
        <time>1970-01-01T00:00:00+00:00</time>
        <ele>1889.0</ele>
      </trkpt>
      <trkpt lat="46.828001" lon="12.890358">
        <time>1970-01-01T00:00:00+00:00</time>
        <ele>1883.0</ele>
      </trkpt>
      <trkpt lat="46.828199" lon="12.890263">
        <time>1970-01-01T00:00:00+00:00</time>
        <ele>1879.0</ele>
      </trkpt>
      <trkpt lat="46.82821" lon="12.8902">
        <time>1970-01-01T00:00:00+00:00</time>
        <ele>1877.0</ele>
      </trkpt>
      <trkpt lat="46.82814" lon="12.890034">
        <time>1970-01-01T00:00:00+00:00</time>
        <ele>1870.0</ele>
      </trkpt>
      <trkpt lat="46.828158" lon="12.889981">
        <time>1970-01-01T00:00:00+00:00</time>
        <ele>1868.0</ele>
      </trkpt>
      <trkpt lat="46.828565" lon="12.889891">
        <time>1970-01-01T00:00:00+00:00</time>
        <ele>1857.0</ele>
      </trkpt>
      <trkpt lat="46.829042" lon="12.889678">
        <time>1970-01-01T00:00:00+00:00</time>
        <ele>1842.0</ele>
      </trkpt>
      <trkpt lat="46.829603" lon="12.889227">
        <time>1970-01-01T00:00:00+00:00</time>
        <ele>1830.0</ele>
      </trkpt>
      <trkpt lat="46.829843" lon="12.888966">
        <time>1970-01-01T00:00:00+00:00</time>
        <ele>1817.0</ele>
      </trkpt>
      <trkpt lat="46.830158" lon="12.888889">
        <time>1970-01-01T00:00:00+00:00</time>
        <ele>1810.0</ele>
      </trkpt>
      <trkpt lat="46.830736" lon="12.889132">
        <time>1970-01-01T00:00:00+00:00</time>
        <ele>1798.0</ele>
      </trkpt>
      <trkpt lat="46.831046" lon="12.889158">
        <time>1970-01-01T00:00:00+00:00</time>
        <ele>1783.0</ele>
      </trkpt>
      <trkpt lat="46.831212" lon="12.889227">
        <time>1970-01-01T00:00:00+00:00</time>
        <ele>1773.0</ele>
      </trkpt>
      <trkpt lat="46.831232" lon="12.889203">
        <time>1970-01-01T00:00:00+00:00</time>
        <ele>1771.0</ele>
      </trkpt>
      <trkpt lat="46.831098" lon="12.888805">
        <time>1970-01-01T00:00:00+00:00</time>
        <ele>1765.0</ele>
      </trkpt>
      <trkpt lat="46.831019" lon="12.888747">
        <time>1970-01-01T00:00:00+00:00</time>
        <ele>1768.0</ele>
      </trkpt>
      <trkpt lat="46.830873" lon="12.888478">
        <time>1970-01-01T00:00:00+00:00</time>
        <ele>1763.0</ele>
      </trkpt>
      <trkpt lat="46.830896" lon="12.888443">
        <time>1970-01-01T00:00:00+00:00</time>
        <ele>1761.0</ele>
      </trkpt>
      <trkpt lat="46.831405" lon="12.888338">
        <time>1970-01-01T00:00:00+00:00</time>
        <ele>1735.0</ele>
      </trkpt>
      <trkpt lat="46.83143" lon="12.888306">
        <time>1970-01-01T00:00:00+00:00</time>
        <ele>1734.0</ele>
      </trkpt>
      <trkpt lat="46.831232" lon="12.888016">
        <time>1970-01-01T00:00:00+00:00</time>
        <ele>1735.0</ele>
      </trkpt>
      <trkpt lat="46.830932" lon="12.887283">
        <time>1970-01-01T00:00:00+00:00</time>
        <ele>1707.0</ele>
      </trkpt>
      <trkpt lat="46.830999" lon="12.887204">
        <time>1970-01-01T00:00:00+00:00</time>
        <ele>1701.0</ele>
      </trkpt>
      <trkpt lat="46.831511" lon="12.887194">
        <time>1970-01-01T00:00:00+00:00</time>
        <ele>1683.0</ele>
      </trkpt>
      <trkpt lat="46.831589" lon="12.887165">
        <time>1970-01-01T00:00:00+00:00</time>
        <ele>1679.0</ele>
      </trkpt>
      <trkpt lat="46.831479" lon="12.886954">
        <time>1970-01-01T00:00:00+00:00</time>
        <ele>1673.0</ele>
      </trkpt>
      <trkpt lat="46.831336" lon="12.886848">
        <time>1970-01-01T00:00:00+00:00</time>
        <ele>1673.0</ele>
      </trkpt>
      <trkpt lat="46.831167" lon="12.886666">
        <time>1970-01-01T00:00:00+00:00</time>
        <ele>1670.0</ele>
      </trkpt>
      <trkpt lat="46.831102" lon="12.886439">
        <time>1970-01-01T00:00:00+00:00</time>
        <ele>1666.0</ele>
      </trkpt>
      <trkpt lat="46.831098" lon="12.886384">
        <time>1970-01-01T00:00:00+00:00</time>
        <ele>1664.0</ele>
      </trkpt>
      <trkpt lat="46.830963" lon="12.886139">
        <time>1970-01-01T00:00:00+00:00</time>
        <ele>1658.0</ele>
      </trkpt>
      <trkpt lat="46.831073" lon="12.886091">
        <time>1970-01-01T00:00:00+00:00</time>
        <ele>1655.0</ele>
      </trkpt>
      <trkpt lat="46.831266" lon="12.886081">
        <time>1970-01-01T00:00:00+00:00</time>
        <ele>1650.0</ele>
      </trkpt>
      <trkpt lat="46.831316" lon="12.886015">
        <time>1970-01-01T00:00:00+00:00</time>
        <ele>1647.0</ele>
      </trkpt>
      <trkpt lat="46.831293" lon="12.885878">
        <time>1970-01-01T00:00:00+00:00</time>
        <ele>1643.0</ele>
      </trkpt>
      <trkpt lat="46.831017" lon="12.885295">
        <time>1970-01-01T00:00:00+00:00</time>
        <ele>1627.0</ele>
      </trkpt>
      <trkpt lat="46.83101" lon="12.8852">
        <time>1970-01-01T00:00:00+00:00</time>
        <ele>1623.0</ele>
      </trkpt>
      <trkpt lat="46.831075" lon="12.885155">
        <time>1970-01-01T00:00:00+00:00</time>
        <ele>1623.0</ele>
      </trkpt>
      <trkpt lat="46.83125" lon="12.885129">
        <time>1970-01-01T00:00:00+00:00</time>
        <ele>1623.0</ele>
      </trkpt>
      <trkpt lat="46.831275" lon="12.885074">
        <time>1970-01-01T00:00:00+00:00</time>
        <ele>1621.0</ele>
      </trkpt>
      <trkpt lat="46.831237" lon="12.884831">
        <time>1970-01-01T00:00:00+00:00</time>
        <ele>1616.0</ele>
      </trkpt>
      <trkpt lat="46.831129" lon="12.88462">
        <time>1970-01-01T00:00:00+00:00</time>
        <ele>1608.0</ele>
      </trkpt>
      <trkpt lat="46.831125" lon="12.884536">
        <time>1970-01-01T00:00:00+00:00</time>
        <ele>1605.0</ele>
      </trkpt>
      <trkpt lat="46.831149" lon="12.884507">
        <time>1970-01-01T00:00:00+00:00</time>
        <ele>1604.0</ele>
      </trkpt>
      <trkpt lat="46.831463" lon="12.88437">
        <time>1970-01-01T00:00:00+00:00</time>
        <ele>1599.0</ele>
      </trkpt>
      <trkpt lat="46.831764" lon="12.884356">
        <time>1970-01-01T00:00:00+00:00</time>
        <ele>1588.0</ele>
      </trkpt>
      <trkpt lat="46.831959" lon="12.884486">
        <time>1970-01-01T00:00:00+00:00</time>
        <ele>1584.0</ele>
      </trkpt>
      <trkpt lat="46.832218" lon="12.884554">
        <time>1970-01-01T00:00:00+00:00</time>
        <ele>1575.0</ele>
      </trkpt>
      <trkpt lat="46.832337" lon="12.884488">
        <time>1970-01-01T00:00:00+00:00</time>
        <ele>1568.0</ele>
      </trkpt>
      <trkpt lat="46.832422" lon="12.884296">
        <time>1970-01-01T00:00:00+00:00</time>
        <ele>1559.0</ele>
      </trkpt>
      <trkpt lat="46.832568" lon="12.884312">
        <time>1970-01-01T00:00:00+00:00</time>
        <ele>1555.0</ele>
      </trkpt>
      <trkpt lat="46.832594" lon="12.884288">
        <time>1970-01-01T00:00:00+00:00</time>
        <ele>1554.0</ele>
      </trkpt>
      <trkpt lat="46.832552" lon="12.884132">
        <time>1970-01-01T00:00:00+00:00</time>
        <ele>1549.0</ele>
      </trkpt>
      <trkpt lat="46.832411" lon="12.883916">
        <time>1970-01-01T00:00:00+00:00</time>
        <ele>1546.0</ele>
      </trkpt>
      <trkpt lat="46.83231" lon="12.883315">
        <time>1970-01-01T00:00:00+00:00</time>
        <ele>1532.0</ele>
      </trkpt>
      <trkpt lat="46.83235" lon="12.883259">
        <time>1970-01-01T00:00:00+00:00</time>
        <ele>1529.0</ele>
      </trkpt>
      <trkpt lat="46.832534" lon="12.883273">
        <time>1970-01-01T00:00:00+00:00</time>
        <ele>1523.0</ele>
      </trkpt>
      <trkpt lat="46.832693" lon="12.883354">
        <time>1970-01-01T00:00:00+00:00</time>
        <ele>1519.0</ele>
      </trkpt>
      <trkpt lat="46.832931" lon="12.883191">
        <time>1970-01-01T00:00:00+00:00</time>
        <ele>1503.0</ele>
      </trkpt>
      <trkpt lat="46.833171" lon="12.883199">
        <time>1970-01-01T00:00:00+00:00</time>
        <ele>1498.0</ele>
      </trkpt>
      <trkpt lat="46.833505" lon="12.883397">
        <time>1970-01-01T00:00:00+00:00</time>
        <ele>1492.0</ele>
      </trkpt>
      <trkpt lat="46.833853" lon="12.883731">
        <time>1970-01-01T00:00:00+00:00</time>
        <ele>1478.0</ele>
      </trkpt>
      <trkpt lat="46.834057" lon="12.883789">
        <time>1970-01-01T00:00:00+00:00</time>
        <ele>1468.0</ele>
      </trkpt>
      <trkpt lat="46.834129" lon="12.883753">
        <time>1970-01-01T00:00:00+00:00</time>
        <ele>1465.0</ele>
      </trkpt>
      <trkpt lat="46.83414" lon="12.883676">
        <time>1970-01-01T00:00:00+00:00</time>
        <ele>1463.0</ele>
      </trkpt>
      <trkpt lat="46.834055" lon="12.883383">
        <time>1970-01-01T00:00:00+00:00</time>
        <ele>1461.0</ele>
      </trkpt>
      <trkpt lat="46.834071" lon="12.883412">
        <time>1970-01-01T00:00:00+00:00</time>
        <ele>1461.0</ele>
      </trkpt>
    </trkseg>
  </trk>
</gpx>
